IRIDE-MS2-HEO-4 (64582 NORAD) Tracking and Keplerian Element Data

This shows tracking and keplerian element data for the satellite.

Feedback or suggestion? Click here.




ElementValue
Catalog64582
NameIRIDE-MS2-HEO-4
Epoch Orbit2719
Epoch Day354.27898789
Epoch Year2025
RAAN105.9027
Inclination97.7593
Eccentricity0.0003848
Argument of Perigee200.1519
Mean Anonmoly159.9549
Mean Motion14.93422069
Decay Rate1.968E-05
L11 64582U 25135BG 25354.27898789 .00001968 00000+0 19267-3 0 9999
L22 64582 97.7593 105.9027 0003848 200.1519 159.9549 14.93422069 27193



Live tracking and technical data element details for IRIDE-MS2-HEO-4 (NORAD 64582). IRIDE-MS2-HEO-4 can be tracked NOW for your location showing map with azimuth and elevation plus other details from your city location.







IsCatalogInMostPopularTable: catalog: 64582, numindb: 11
Update: records affected: 1



GetName: 64582 IRIDE-MS2-HEO-4

Hit Count: updated at: Mon, 20 Apr 2026 10:52:28 GMT